BREEZE M DEB (TANK) - Orbit

View from above orbital plane
View from above orbital plane
View from above satellite
View from above satellite

Ground track
Ground track

The orbit data is extracted from the following two-line orbital elements,

1 28359U 04022B   13137.30203942  .00007597  00000-0  10773-2 0  9766
2 28359 049.5167 077.7193 4745822 055.1911 044.4056 06.05711961193630
Epoch (UTC): 17 May 2013 07:14:56
Eccentricity: 0.4745822
inclination: 49.5167°
perigee height: 301 km
apogee height: 12367 km
right ascension of ascending node: 77.7193°
argument of perigee: 55.1911°
revolutions per day: 6.05711961
mean anomaly at epoch: 44.4056°
orbit number at epoch: 19363

The dashed part of the orbit path shows where the satellite is in the earth's shadow,  

Developed and maintained by Chris Peat, Heavens-Above GmbH. Please read the updated FAQ before sending e-mail. Imprint. DLR